Regional Weather Roundup
Issued by NWS

Home | Current Version | Previous Version | Graphics & Text | Print | Product List | Glossary On
Versions: 1 2 3 4 5 6 7 8 9 10 11 12 13 14 15 16 17 18 19 20 21 22 23 24 25 26 27 28 29 30 31 32 33 34 35 36 37 38 39 40 41 42 43 44 45 46 47 48 49 50
000
ASUS45 KTFX 221519
RWRMT
MONTANA HOURLY WEATHER ROUNDUP
NATIONAL WEATHER SERVICE GREAT FALLS MT
919 AM MDT FRI AUG 22 2014

NOTE: "FAIR" INDICATES FEW OR NO CLOUDS BELOW 12000 FEET WITH NO
SIGNIFICANT WEATHER AND/OR OBSTRUCTIONS TO VISIBILITY.

* THESE STATIONS ARE NOT UNDER NWS QUALITY CONTROL. THEY DO NOT
   REPORT WEATHER SUCH AS PRECIPITATION OR FOG.

MTZ001>007-043-221600-
WEST OF THE DIVIDE
CITY           SKY/WX    TMP DP  RH WIND       PRES   REMARKS
KALISPELL      CLOUDY    59  45  60 NE17G23   30.07R
MISSOULA       CLOUDY    55  52  90 N3        30.06R
BUTTE          CLOUDY    52  45  77 S6        30.12S
MULLAN PASS    CLOUDY    46  43  89 VRB5      30.09R
* ESSEX        N/A       52  44  74 SE2        N/A
* LINCOLN      N/A       52  47  83 E8G14      N/A
* LOOKOUT PASS N/A       50  46  86 S3         N/A
* POLSON       N/A       56  50  80 N2         N/A
* RONAN APT    CLOUDY    57  54  90 N5         N/A
* SEELEY LAKE  N/A       50  49  96 N/A        N/A
* THOMP F APT  CLOUDY    49  44  83 N4         N/A
$$

MTZ008-052>055-221600-
SOUTHWEST MONTANA
CITY           SKY/WX    TMP DP  RH WIND       PRES   REMARKS
BOZEMAN        CLOUDY    54  50  86 N5        30.11R
DILLON         CLOUDY    52  48  86 NE7       30.10S
W YELLOWSTONE  CLOUDY    45  45 100 CALM      30.16S
* THREE FORKS  CLOUDY    54  36  51 N/A        N/A
* BOULDER HILL N/A       48  45  89 N7         N/A
* MONIDA PASS  N/A       45  44  96 N/A        N/A
* RAYNOLDS PAS N/A       45  18  34 N/A        N/A
* WHITEHALL    N/A       52  51  96 N3         N/A
* WISE RIVER   N/A       48  46  93 NW2        N/A
$$

MTZ009>010-012-014-046-048-049-054-221600-
EAST SLOPES AND CENTRAL MONTANA
CITY           SKY/WX    TMP DP  RH WIND       PRES   REMARKS
CUT BANK       CLOUDY    52  48  86 NE12      30.17S
GREAT FALLS    LGT RAIN  52  52 100 NE10      30.12F VSB 3
HELENA         PTSUNNY   55  50  83 NW6       30.11S
MALMSTROM AFB  LGT RAIN  52  52 100 NE8       30.15R
* CONRAD       CLOUDY    52  52 100 NW6        N/A
* DEARBORN     N/A       52  51  96 N9         N/A
* EAST GLACIER N/A       46  44  93 NE7        N/A
* MONARCH      N/A       47  44  89 N/A        N/A
* PENDROY      N/A       48  48 100 N8         N/A
* ROGERS PASS  N/A       46  46 100 S1G8       N/A
* SAINT MARY   N/A       47  46  96 NW1G6      N/A
* SWEET GRASS  N/A       50  50 100 NE14       N/A
* WHITE SULPH  N/A       52  50  93 W1         N/A
$$

MTZ011-013-016-021-035-040-045-047-050-051-221600-
NORTH CENTRAL MONTANA
CITY           SKY/WX    TMP DP  RH WIND       PRES   REMARKS
HAVRE          CLOUDY    61  55  81 NE5       30.11S
LEWISTOWN      LGT RAIN  55  54  96 CALM      30.12F
* CHINOOK      PTCLDY    59  55  87 E13       30.11S
* FORT BENTON  CLOUDY    55  52  90 NW3       30.13S
* CHESTER      N/A       53  50  90 NE11G17    N/A
* DENTON       N/A       53  52  96 N6         N/A
* GEYSER       N/A       51  50  96 N4         N/A
* JUDITH GAP   N/A       52  51  96 N6         N/A
* LOMA         N/A       56  54  93 VRB4       N/A
$$

MTZ017>020-022>027-061-062-221600-
NORTHEAST MONTANA
CITY           SKY/WX    TMP DP  RH WIND       PRES   REMARKS
GLASGOW        LGT RAIN  59  57  93 E12       30.10S VSB 2
GLENDIVE       CLOUDY    61  61 100 NE10      30.10R
JORDAN         CLOUDY    61  57  87 NE6       30.09S
SIDNEY         CLOUDY    63  57  81 NE8       30.12R
WOLF POINT     LGT RAIN  61  57  87 NE10      30.11R
* BEAVER HILL  N/A       60  60 100 N/A        N/A
* CIRCLE       N/A       60  58  93 NE9G16     N/A
* LINDSAY DVD  N/A       59  59 100 NE10G16    N/A
* SACO         N/A       59  57  93 N9         N/A
$$

MTZ028>042-056>058-221600-
SOUTHCENTRAL AND SOUTHEAST MONTANA
CITY           SKY/WX    TMP DP  RH WIND       PRES   REMARKS
BAKER          CLOUDY    63  59  87 CALM      30.10R
BILLINGS       FOG       55  55 100 NE6       30.09F
LIVINGSTON     CLOUDY    55  52  90 E9        30.09F
MILES CITY     CLOUDY    63  55  75 N3        30.09R
* LAUREL APT   CLOUDY    55  52  90 N/A        N/A
* ROUNDUP APT  CLOUDY    55  52  90 N/A        N/A
* ALZADA       N/A       62  59  90 NW1        N/A
* HYSHAM       N/A       57  55  93 E4         N/A
* LAME DEER    N/A       56  54  93 E1         N/A
* REED POINT   N/A       57  56  96 E5         N/A
* ROSCOE HILL  N/A       54  48  80 NE3        N/A
$$

REGIONAL REPORTS...DAKOTAS
CITY           SKY/WX    TMP DP  RH WIND       PRES   REMARKS
WILLISTON      PTSUNNY   63  55  75 NE13      30.10R
DICKINSON      CLOUDY    64  61  90 CALM      30.06S
BEACH          N/A       63  63 100 E9        30.10R
CROSBY         CLOUDY    61  59  93 NE12G17   30.13F
TIOGA          CLOUDY    61  61 100 NE17G22   30.13S
WATFORD CITY   CLOUDY    61  57  87 NE8       30.08R
BISMARCK       CLOUDY    70  64  81 CALM      30.05R
GRAND FORKS    CLOUDY    66  64  93 N16       29.98R
FARGO          CLOUDY    70  68  93 N8        29.97R
BUFFALO SD     PTCLDY    63  59  87 S5        30.02F
RAPID CITY     CLOUDY    63  61  93 N6        30.08F
$$

REGIONAL REPORTS...WYOMING/IDAHO/WASHINGTON
CITY           SKY/WX    TMP DP  RH WIND       PRES   REMARKS
GILLETTE       PTSUNNY   63  54  73 E6        30.10F
SHERIDAN       FOG       59  55  87 N3        30.09F
CODY           CLOUDY    54  52  93 NE5       30.12F
YELLOWSTONE LA CLOUDY    46  45  96 CALM      30.23R
SALMON         PTSUNNY   57  50  78 CALM      30.02S
MULLAN PASS    CLOUDY    46  43  89 VRB5      30.09S
SAND POINT     PTCLDY    59  50  72 N16       30.01R
SPOKANE        TSTM      55  52  90 CALM      29.98R
$$

REGIONAL REPORTS...ALBERTA
CITY           SKY/WX    TMP DP  RH WIND       PRES   REMARKS
CALGARY        LGT RAIN  48  46  93 NE8       30.27R
LETHBRIDGE     LGT RAIN  52  52 100 NE10G17   30.21R
MEDICINE HAT   LGT RAIN  54  52  93 NE13G21   30.21R
EDMONTON       PTCLDY    52  41  66 E2        30.33R
WATERTON GATE  N/A       48  46  93 N5         N/A
CARDSTON       N/A       50  50 100 NE6        N/A
$$

REGIONAL REPORTS...SASKATCHEWAN
CITY           SKY/WX    TMP DP  RH WIND       PRES   REMARKS
SWIFT CURRENT  LGT RAIN  52  52 100 NE14      30.20S VSB 3
MOOSE JAW      PTSUNNY   61  55  81 E10       30.19S
REGINA         PTSUNNY   59  55  87 NE9       30.18S
VAL MARIE      N/A       57  54  90 NE14       N/A
ASSINIBOIA     N/A       59  54  84 E13        N/A
CORONACH       N/A       59  55  87 NE8        N/A

$$



USA.gov is the U.S. government's official web portal to all federal, state and local government web resources and services.